TimeEDT,TemperatureF,Dew PointF,Humidity,Sea Level PressureIn,VisibilityMPH,Wind Direction,Wind SpeedMPH,Gust SpeedMPH,PrecipitationIn,Events,Conditions,WindDirDegrees,DateUTC
12:54 AM,68.0,64.0,87,29.90,10.0,NNW,5.8,-,N/A,,Overcast,330,2013-10-12 04:54:00
1:50 AM,68.0,64.4,88,29.91,2.0,NNW,4.6,-,N/A,,Overcast,340,2013-10-12 05:50:00
1:54 AM,68.0,64.0,87,29.91,2.5,Calm,Calm,-,N/A,,Overcast,0,2013-10-12 05:54:00
2:05 AM,68.0,64.4,88,29.91,5.0,Calm,Calm,-,N/A,,Overcast,0,2013-10-12 06:05:00
2:54 AM,68.0,64.9,90,29.90,6.0,Calm,Calm,-,0.00,,Overcast,0,2013-10-12 06:54:00
3:24 AM,68.0,64.4,88,29.90,4.0,NNW,3.5,-,0.01,,Overcast,340,2013-10-12 07:24:00
3:54 AM,68.0,64.9,90,29.90,10.0,NW,4.6,-,0.01,,Overcast,310,2013-10-12 07:54:00
4:05 AM,68.0,64.4,88,29.90,9.0,NW,3.5,-,N/A,,Overcast,320,2013-10-12 08:05:00
4:54 AM,69.1,64.9,87,29.92,3.0,NNW,3.5,-,0.01,Rain,Light Rain,340,2013-10-12 08:54:00
5:12 AM,69.8,64.4,83,29.92,4.0,NW,3.5,-,0.01,Rain,Light Rain,320,2013-10-12 09:12:00
5:54 AM,69.1,64.9,87,29.92,4.0,Calm,Calm,-,0.02,Rain,Light Rain,0,2013-10-12 09:54:00
6:54 AM,69.1,66.0,90,29.94,5.0,North,4.6,-,0.01,,Overcast,360,2013-10-12 10:54:00
7:54 AM,69.1,66.0,90,29.95,4.0,North,4.6,-,0.00,,Overcast,360,2013-10-12 11:54:00
8:06 AM,69.8,66.2,88,29.95,2.0,North,6.9,-,0.01,Rain,Light Rain,360,2013-10-12 12:06:00
8:18 AM,69.8,66.2,88,29.96,6.0,North,5.8,-,0.01,,Overcast,10,2013-10-12 12:18:00
8:32 AM,69.8,66.2,88,29.96,5.0,North,4.6,-,0.01,,Overcast,10,2013-10-12 12:32:00
8:54 AM,70.0,66.0,87,29.97,3.0,North,5.8,-,0.01,,Overcast,360,2013-10-12 12:54:00
9:54 AM,71.1,66.9,87,29.98,2.5,North,8.1,-,0.00,,Overcast,10,2013-10-12 13:54:00
10:03 AM,71.6,66.2,83,29.98,4.0,NNE,9.2,-,0.00,Rain,Light Rain,20,2013-10-12 14:03:00
10:09 AM,71.6,66.2,83,29.98,2.5,NNE,5.8,-,0.00,Rain,Light Rain,30,2013-10-12 14:09:00
10:23 AM,71.6,66.2,83,29.98,1.8,NE,10.4,-,0.00,Rain,Light Rain,40,2013-10-12 14:23:00
10:34 AM,71.6,66.2,83,29.98,2.5,NE,6.9,-,0.01,Rain,Light Rain,40,2013-10-12 14:34:00
10:41 AM,71.6,66.2,83,29.98,7.0,NE,8.1,-,0.01,,Overcast,40,2013-10-12 14:41:00
10:51 AM,71.6,66.2,83,29.98,1.8,NNE,6.9,-,0.01,Rain,Light Rain,30,2013-10-12 14:51:00
10:54 AM,71.1,66.9,87,29.98,1.5,NNE,8.1,-,0.01,Rain,Light Rain,30,2013-10-12 14:54:00
11:01 AM,71.6,66.2,83,29.99,2.0,NNE,8.1,-,0.01,Rain,Light Rain,30,2013-10-12 15:01:00
11:10 AM,71.6,66.2,83,29.99,6.0,NE,8.1,-,0.01,,Overcast,40,2013-10-12 15:10:00
11:38 AM,71.6,66.2,83,29.99,2.0,NNE,6.9,-,0.01,,Haze,30,2013-10-12 15:38:00
11:50 AM,71.6,66.2,83,29.99,4.0,NE,5.8,-,0.01,,Haze,40,2013-10-12 15:50:00
11:54 AM,72.0,66.9,84,29.99,4.0,NNE,5.8,-,0.01,,Haze,20,2013-10-12 15:54:00
12:15 PM,71.6,68.0,88,29.99,1.8,NNE,5.8,-,0.00,Rain,Light Rain,30,2013-10-12 16:15:00
12:28 PM,71.6,68.0,88,29.99,3.0,NNE,9.2,-,0.00,Rain,Light Rain,30,2013-10-12 16:28:00
12:41 PM,71.6,68.0,88,29.99,1.8,NE,8.1,-,0.00,Rain,Light Rain,40,2013-10-12 16:41:00
12:54 PM,72.0,68.0,87,29.99,1.8,NE,8.1,-,0.02,Rain,Light Rain,40,2013-10-12 16:54:00
1:23 PM,71.6,68.0,88,29.98,2.5,ENE,12.7,-,0.04,Rain,Light Rain,70,2013-10-12 17:23:00
1:42 PM,71.6,66.2,83,29.98,3.0,ENE,9.2,-,0.04,Rain,Light Rain,70,2013-10-12 17:42:00
1:51 PM,71.6,68.0,88,29.98,2.5,ENE,6.9,-,0.04,,Overcast,60,2013-10-12 17:51:00
1:54 PM,72.0,68.0,87,29.98,2.5,NE,9.2,-,0.04,,Overcast,50,2013-10-12 17:54:00
2:19 PM,73.4,68.0,83,29.98,5.0,NE,9.2,-,0.00,,Haze,50,2013-10-12 18:19:00
2:32 PM,73.4,68.0,83,29.98,10.0,NE,11.5,-,0.00,,Overcast,50,2013-10-12 18:32:00
2:54 PM,73.0,66.9,81,29.98,10.0,ENE,8.1,-,0.00,,Overcast,60,2013-10-12 18:54:00
3:12 PM,71.6,68.0,88,29.98,4.0,ENE,10.4,-,0.00,,Overcast,60,2013-10-12 19:12:00
3:42 PM,73.4,68.0,83,29.99,10.0,ENE,9.2,-,0.00,,Overcast,60,2013-10-12 19:42:00
3:54 PM,73.0,68.0,84,29.99,7.0,NE,8.1,-,0.00,,Overcast,50,2013-10-12 19:54:00
4:02 PM,73.4,68.0,83,29.99,4.0,NE,10.4,-,0.00,Rain,Light Rain,50,2013-10-12 20:02:00
4:11 PM,71.6,66.2,83,30.00,2.0,NE,9.2,-,0.01,Rain,Light Rain,50,2013-10-12 20:11:00
4:18 PM,71.6,68.0,88,30.00,2.5,NE,6.9,-,0.01,Rain,Light Rain,50,2013-10-12 20:18:00
4:26 PM,71.6,68.0,88,30.00,5.0,ENE,8.1,-,0.01,,Overcast,60,2013-10-12 20:26:00
4:54 PM,72.0,66.9,84,30.00,5.0,NE,4.6,-,0.01,Rain,Light Rain,40,2013-10-12 20:54:00
5:25 PM,71.6,66.2,83,30.01,2.5,NNE,6.9,-,0.02,Rain,Light Rain,30,2013-10-12 21:25:00
5:32 PM,71.6,66.2,83,30.01,7.0,NE,6.9,-,0.02,Rain,Light Rain,40,2013-10-12 21:32:00
5:54 PM,71.1,66.0,84,30.02,7.0,NNE,11.5,16.1,0.03,Rain,Light Rain,30,2013-10-12 21:54:00
6:54 PM,70.0,66.0,87,30.04,3.0,NNE,8.1,17.3,0.03,Rain,Light Rain,30,2013-10-12 22:54:00
7:54 PM,69.1,64.9,87,30.05,10.0,NNE,9.2,17.3,0.00,,Overcast,30,2013-10-12 23:54:00
8:54 PM,68.0,64.0,87,30.06,10.0,NNE,8.1,-,0.00,,Overcast,30,2013-10-13 00:54:00
9:54 PM,68.0,64.0,87,30.06,10.0,NNE,10.4,-,N/A,,Overcast,30,2013-10-13 01:54:00
10:54 PM,68.0,64.0,87,30.07,10.0,NNE,6.9,-,N/A,,Overcast,20,2013-10-13 02:54:00
11:27 PM,68.0,64.4,88,30.07,10.0,North,6.9,-,N/A,,Overcast,10,2013-10-13 03:27:00
11:54 PM,68.0,64.0,87,30.07,10.0,North,4.6,-,N/A,,Overcast,10,2013-10-13 03:54:00